GSAT0205 (GALILEO 9) (40889 NORAD) Tracking and Keplerian Element Data

This shows tracking and keplerian element data for the satellite.

Feedback or suggestion? Click here.




ElementValue
Catalog40889
NameGSAT0205 (GALILEO 9)
Epoch Orbit3743
Epoch Day259.11758128
Epoch Year2021
RAAN269.5379
Inclination55.8125
Eccentricity0.0003855
Argument of Perigee338.9405
Mean Anonmoly21.0772
Mean Motion1.70475085
Decay Rate3.1E-07
L11 40889U 15045A 21259.11758128 .00000031 00000-0 00000-0 0 9990
L22 40889 55.8125 269.5379 0003855 338.9405 21.0772 1.70475085 37434

Live tracking and technical data element details for GSAT0205 (GALILEO 9) (NORAD 40889). GSAT0205 (GALILEO 9) can be tracked NOW for your location showing map with azimuth and elevation plus other details from your city location.

Track the satellite on the map from your city or location and see movement details for azimuth, elevation, latitude, longitude, range, height, and movement on the map or in text.







IsCatalogInMostPopularTable: catalog: 40889, numindb: 690
Update: records affected: 1



GetName: 40889 GSAT0205 (GALILEO 9)

Hit Count: updated at: Sat, 25 Sep 2021 23:48:53 GMT